When you browse on this site, cookies collect data to enhance your experience and personalize the content and advertising you see.
Visit our Privacy Policy to learn more. By continuing to use the site, you agree to this use of cookies and data.
  • In United Kingdom
  • List of Countries
  • For 7 days
  • Water Temperature
  • Satellite Maps
  • Weather Map
  • Weather Widgets
  • user-avatar
    Login

    Hourly Weather Kazanketken

    Today, 19 March, Tuesday

    Time Temperature Precipitation Wind Pressure Humidity
    00:00 +13°C° 0 mm 9 mps 749 mmHg 48%
    01:00 +13°C° 0 mm 8 mps 749 mmHg 47%
    02:00 +12°C° 0 mm 7 mps 749 mmHg 48%
    03:00 +11°C° 0 mm 7 mps 750 mmHg 49%
    04:00 +11°C° 0 mm 7 mps 750 mmHg 51%
    05:00 +10°C° 0.2 mm 7 mps 751 mmHg 53%
    06:00 +9°C° 0.2 mm 7 mps 751 mmHg 55%
    07:00 +9°C° 0.2 mm 7 mps 751 mmHg 57%
    08:00 +9°C° 0.2 mm 7 mps 752 mmHg 55%
    09:00 +9°C° 0.2 mm 6 mps 752 mmHg 52%
    10:00 +9°C° 0.2 mm 6 mps 753 mmHg 50%
    11:00 +10°C° 0.1 mm 6 mps 753 mmHg 47%
    12:00 +10°C° 0.1 mm 6 mps 753 mmHg 45%
    13:00 +11°C° 0.1 mm 6 mps 753 mmHg 43%
    14:00 +11°C° 0.1 mm 6 mps 754 mmHg 45%
    15:00 +12°C° 0.1 mm 5 mps 754 mmHg 46%
    16:00 +12°C° 0.1 mm 5 mps 754 mmHg 47%
    17:00 +10°C° 0.1 mm 5 mps 754 mmHg 47%
    18:00 +10°C° 0.1 mm 6 mps 755 mmHg 46%
    19:00 +9°C° 0.1 mm 6 mps 755 mmHg 45%
    20:00 +8°C° 0 mm 6 mps 755 mmHg 46%
    21:00 +8°C° 0 mm 5 mps 755 mmHg 48%
    22:00 +7°C° 0 mm 5 mps 755 mmHg 49%
    23:00 +7°C° 0 mm 5 mps 755 mmHg 50%

    Tomorrow, 20 March, Wednesday

    Time Temperature Precipitation Wind Pressure Humidity
    00:00 +7°C° 0 mm 4 mps 755 mmHg 51%
    01:00 +7°C° 0 mm 4 mps 755 mmHg 51%
    02:00 +6°C° 0 mm 4 mps 755 mmHg 52%
    03:00 +6°C° 0 mm 4 mps 755 mmHg 53%
    04:00 +5°C° 0 mm 4 mps 755 mmHg 54%
    05:00 +5°C° 0 mm 4 mps 755 mmHg 54%
    06:00 +5°C° 0 mm 4 mps 755 mmHg 55%
    07:00 +5°C° 0 mm 4 mps 756 mmHg 55%
    08:00 +7°C° 0 mm 4 mps 756 mmHg 50%
    09:00 +8°C° 0 mm 4 mps 756 mmHg 45%
    10:00 +11°C° 0 mm 4 mps 756 mmHg 40%
    11:00 +12°C° 0 mm 4 mps 756 mmHg 38%
    12:00 +13°C° 0 mm 4 mps 756 mmHg 36%
    13:00 +14°C° 0 mm 3 mps 756 mmHg 34%
    14:00 +14°C° 0 mm 4 mps 756 mmHg 35%
    15:00 +13°C° 0 mm 4 mps 755 mmHg 36%
    16:00 +13°C° 0 mm 4 mps 755 mmHg 37%
    17:00 +12°C° 0 mm 4 mps 755 mmHg 41%
    18:00 +10°C° 0 mm 4 mps 756 mmHg 45%
    19:00 +8°C° 0 mm 4 mps 756 mmHg 48%
    20:00 +7°C° 0 mm 4 mps 756 mmHg 51%
    21:00 +8°C° 0 mm 3 mps 756 mmHg 53%
    22:00 +7°C° 0 mm 3 mps 756 mmHg 55%
    23:00 +7°C° 0 mm 3 mps 756 mmHg 56%

    Day after tomorrow, 21 March, Thursday

    Time Temperature Precipitation Wind Pressure Humidity
    00:00 +7°C° 0 mm 2 mps 756 mmHg 57%
    01:00 +6°C° 0 mm 2 mps 756 mmHg 58%
    02:00 +6°C° 0 mm 2 mps 756 mmHg 58%
    03:00 +6°C° 0 mm 2 mps 756 mmHg 59%
    04:00 +5°C° 0 mm 2 mps 756 mmHg 60%
    05:00 +5°C° 0 mm 2 mps 756 mmHg 60%
    06:00 +6°C° 0 mm 2 mps 756 mmHg 60%
    07:00 +6°C° 0 mm 2 mps 757 mmHg 60%
    08:00 +7°C° 0 mm 3 mps 757 mmHg 57%
    09:00 +8°C° 0 mm 3 mps 757 mmHg 54%
    10:00 +10°C° 0 mm 3 mps 757 mmHg 51%
    11:00 +11°C° 0 mm 3 mps 757 mmHg 48%
    12:00 +12°C° 0 mm 4 mps 757 mmHg 45%
    13:00 +14°C° 0 mm 4 mps 757 mmHg 42%
    14:00 +14°C° 0 mm 4 mps 757 mmHg 40%
    15:00 +14°C° 0 mm 5 mps 757 mmHg 38%
    16:00 +15°C° 0 mm 5 mps 757 mmHg 36%
    17:00 +14°C° 0 mm 4 mps 757 mmHg 38%
    18:00 +14°C° 0 mm 3 mps 757 mmHg 39%
    19:00 +13°C° 0 mm 3 mps 757 mmHg 41%
    20:00 +14°C° 0.1 mm 2 mps 757 mmHg 43%
    21:00 +13°C° 0.1 mm 2 mps 758 mmHg 44%
    22:00 +13°C° 0.1 mm 1 mps 758 mmHg 46%
    23:00 +13°C° 0 mm 1 mps 758 mmHg 47%

    22 March, Friday

    Time Temperature Precipitation Wind Pressure Humidity
    00:00 +12°C° 0 mm 1 mps 757 mmHg 47%
    01:00 +12°C° 0 mm 2 mps 757 mmHg 47%
    02:00 +12°C° 0 mm 2 mps 757 mmHg 46%
    03:00 +10°C° 0 mm 2 mps 757 mmHg 46%
    04:00 +10°C° 0 mm 2 mps 757 mmHg 45%
    05:00 +10°C° 0 mm 2 mps 757 mmHg 45%
    06:00 +10°C° 0 mm 2 mps 758 mmHg 45%
    07:00 +10°C° 0 mm 2 mps 758 mmHg 45%
    08:00 +12°C° 0 mm 2 mps 758 mmHg 42%
    09:00 +13°C° 0 mm 2 mps 758 mmHg 40%
    10:00 +15°C° 0 mm 2 mps 759 mmHg 37%
    11:00 +16°C° 0 mm 2 mps 758 mmHg 36%
    12:00 +16°C° 0 mm 2 mps 758 mmHg 35%
    13:00 +17°C° 0 mm 2 mps 758 mmHg 34%
    14:00 +17°C° 0 mm 2 mps 758 mmHg 35%
    15:00 +17°C° 0 mm 2 mps 758 mmHg 35%
    16:00 +17°C° 0 mm 2 mps 757 mmHg 35%
    17:00 +17°C° 0 mm 2 mps 758 mmHg 37%
    18:00 +16°C° 0 mm 2 mps 758 mmHg 38%
    19:00 +16°C° 0 mm 3 mps 758 mmHg 40%
    20:00 +14°C° 0 mm 3 mps 758 mmHg 42%
    21:00 +13°C° 0 mm 3 mps 758 mmHg 44%
    22:00 +13°C° 0 mm 4 mps 759 mmHg 46%
    23:00 +12°C° 0 mm 3 mps 758 mmHg 47%

    23 March, Saturday

    Time Temperature Precipitation Wind Pressure Humidity
    00:00 +12°C° 0 mm 3 mps 758 mmHg 49%
    01:00 +11°C° 0 mm 3 mps 758 mmHg 50%
    02:00 +11°C° 0 mm 3 mps 758 mmHg 52%
    03:00 +10°C° 0 mm 3 mps 758 mmHg 53%
    04:00 +10°C° 0 mm 3 mps 758 mmHg 54%
    05:00 +10°C° 0 mm 3 mps 758 mmHg 55%
    06:00 +10°C° 0 mm 3 mps 758 mmHg 55%
    07:00 +10°C° 0 mm 3 mps 758 mmHg 55%
    08:00 +12°C° 0 mm 3 mps 759 mmHg 51%
    09:00 +13°C° 0 mm 3 mps 759 mmHg 47%
    10:00 +16°C° 0 mm 3 mps 759 mmHg 43%
    11:00 +16°C° 0 mm 3 mps 759 mmHg 42%
    12:00 +17°C° 0 mm 3 mps 758 mmHg 41%
    13:00 +17°C° 0 mm 2 mps 758 mmHg 40%
    14:00 +17°C° 0 mm 2 mps 757 mmHg 40%
    15:00 +18°C° 0 mm 1 mps 757 mmHg 40%
    16:00 +18°C° 0 mm 1 mps 757 mmHg 40%
    17:00 +18°C° 0 mm 1 mps 757 mmHg 42%
    18:00 +16°C° 0 mm 1 mps 757 mmHg 44%
    19:00 +15°C° 0 mm 0 mps 757 mmHg 46%
    20:00 +16°C° 0 mm 1 mps 757 mmHg 47%
    21:00 +16°C° 0 mm 1 mps 756 mmHg 47%
    22:00 +16°C° 0 mm 1 mps 756 mmHg 48%
    23:00 +15°C° 0 mm 1 mps 756 mmHg 48%

    24 March, Sunday

    Time Temperature Precipitation Wind Pressure Humidity
    00:00 +15°C° 0 mm 1 mps 756 mmHg 48%
    01:00 +15°C° 0 mm 2 mps 755 mmHg 48%
    02:00 +15°C° 0 mm 2 mps 755 mmHg 48%
    03:00 +14°C° 0 mm 2 mps 755 mmHg 47%
    04:00 +14°C° 0 mm 2 mps 754 mmHg 47%
    05:00 +13°C° 0 mm 3 mps 754 mmHg 46%
    06:00 +13°C° 0 mm 3 mps 754 mmHg 45%
    07:00 +13°C° 0 mm 4 mps 754 mmHg 44%
    08:00 +15°C° 0 mm 5 mps 754 mmHg 39%
    09:00 +16°C° 0 mm 6 mps 753 mmHg 34%
    10:00 +18°C° 0 mm 7 mps 753 mmHg 29%
    11:00 +20°C° 0 mm 7 mps 753 mmHg 29%
    12:00 +20°C° 0 mm 8 mps 752 mmHg 29%
    13:00 +21°C° 0 mm 8 mps 751 mmHg 28%
    14:00 +18°C° 0.1 mm 9 mps 751 mmHg 38%
    15:00 +16°C° 0.1 mm 10 mps 751 mmHg 48%
    16:00 +14°C° 0.1 mm 11 mps 751 mmHg 58%
    17:00 +12°C° 0.7 mm 10 mps 751 mmHg 62%
    18:00 +11°C° 0.7 mm 9 mps 751 mmHg 65%
    19:00 +10°C° 0.7 mm 8 mps 752 mmHg 68%
    20:00 +10°C° 0.1 mm 8 mps 752 mmHg 65%
    21:00 +9°C° 0.1 mm 8 mps 752 mmHg 61%
    22:00 +9°C° 0.1 mm 8 mps 752 mmHg 57%
    23:00 +7°C° 0 mm 8 mps 752 mmHg 58%
    Show more